Location: Alladorf
(49.9620°N, 11.3790°E)
Time: 19:49:26
(UTC+00:00)

SL-4 R/B - Pass Details

Date: 29 November 2020
Orbit: 428 x 664 km, 51.6° (Epoch: 25 January)

Event Time Altitude Azimuth Distance (km) Brightness Sun altitude
Exits shadow 05:50:56 12° 285° (WNW) 1,597 3.7 -9.0°
Maximum altitude 05:54:30 80° 11° (NNE) 493 1.7 -8.5°
Drops below altitude 10° 05:58:06 10° 101° (E) 1,603 5.9 -8.0°
Sets 06:00:10 0° 102° (ESE) 2,447 7.3 -7.7°
